DAL1882 KATL-TJSJ

Flight info

Callsign DAL1882
Flight time 2h 59m
Altitude 37000
Route VRSTY3 NOKIE DCT YANTI Q89 MANLE Y185 RENAH Y355 PLING RTE7 SAALR
Aircraft B763/H-SDE3FGHIM3RWXY/LB1

Departure

Time 2026-04-23 14:32
Airport Hartsfield Jackson Atlanta International Airport (KATL)

Arrival

Time 2026-04-23 17:31
Airport Luis Munoz Marin International Airport (TJSJ)
Time Latitude Longitude Altitude Speed Heading
2026-04-23 14:06 33.63884 -84.42513 1002 ft 0 kts 270°
2026-04-23 14:23 33.63884 -84.42512 1001 ft 0 kts 270°
2026-04-23 14:23 33.63884 -84.42498 1001 ft 2 kts 270°
2026-04-23 14:23 33.63884 -84.42480 1000 ft 2 kts 270°
2026-04-23 14:24 33.63884 -84.42461 999 ft 1 kts 270°
2026-04-23 14:24 33.63884 -84.42451 999 ft 2 kts 263°
2026-04-23 14:24 33.63889 -84.42435 998 ft 2 kts 234°
2026-04-23 14:24 33.63899 -84.42423 998 ft 2 kts 209°
2026-04-23 14:25 33.63913 -84.42416 998 ft 1 kts 184°
2026-04-23 14:25 33.63919 -84.42416 998 ft 0 kts 179°
2026-04-23 14:26 33.63918 -84.42416 998 ft 1 kts 179°
2026-04-23 14:27 33.63862 -84.42416 997 ft 9 kts 181°
2026-04-23 14:27 33.63796 -84.42416 997 ft 8 kts 180°
2026-04-23 14:27 33.63738 -84.42416 998 ft 7 kts 180°
2026-04-23 14:27 33.63673 -84.42401 997 ft 11 kts 141°
2026-04-23 14:28 33.63655 -84.42291 993 ft 15 kts 91°
2026-04-23 14:28 33.63631 -84.42155 988 ft 15 kts 117°
2026-04-23 14:28 33.63583 -84.42033 984 ft 16 kts 104°
2026-04-23 14:28 33.63581 -84.41885 976 ft 20 kts 90°
2026-04-23 14:29 33.63581 -84.41703 969 ft 20 kts 90°
2026-04-23 14:29 33.63581 -84.41530 968 ft 19 kts 90°
2026-04-23 14:29 33.63581 -84.41377 965 ft 17 kts 90°
2026-04-23 14:29 33.63581 -84.41247 965 ft 13 kts 90°
2026-04-23 14:30 33.63581 -84.41142 965 ft 12 kts 90°
2026-04-23 14:30 33.63549 -84.41048 963 ft 11 kts 146°
2026-04-23 14:30 33.63481 -84.41054 963 ft 8 kts 226°
2026-04-23 14:30 33.63471 -84.41111 964 ft 7 kts 270°
2026-04-23 14:31 33.63472 -84.41342 966 ft 52 kts 270°
2026-04-23 14:31 33.63472 -84.41990 984 ft 101 kts 271°
2026-04-23 14:31 33.63469 -84.43023 1010 ft 148 kts 269°
2026-04-23 14:31 33.63475 -84.44444 1161 ft 183 kts 271°
2026-04-23 14:32 33.63479 -84.46040 1888 ft 185 kts 270°
2026-04-23 14:32 33.63476 -84.47812 2184 ft 216 kts 270°
2026-04-23 14:32 33.63473 -84.49902 2713 ft 241 kts 271°
2026-04-23 14:32 33.63471 -84.52123 3482 ft 254 kts 270°
2026-04-23 14:33 33.63469 -84.54449 4487 ft 259 kts 270°
2026-04-23 14:33 33.63467 -84.56799 5396 ft 265 kts 269°
2026-04-23 14:33 33.63464 -84.59191 6310 ft 271 kts 269°
2026-04-23 14:33 33.63460 -84.61727 7045 ft 283 kts 269°
2026-04-23 14:34 33.63238 -84.64171 7948 ft 284 kts 249°
2026-04-23 14:34 33.62083 -84.66270 8864 ft 281 kts 218°
2026-04-23 14:34 33.60413 -84.67640 9684 ft 284 kts 210°
2026-04-23 14:34 33.58649 -84.68899 10496 ft 286 kts 202°
2026-04-23 14:35 33.56491 -84.69375 11232 ft 289 kts 174°
2026-04-23 14:35 33.54307 -84.69025 11998 ft 293 kts 172°
2026-04-23 14:35 33.52173 -84.68667 12710 ft 298 kts 172°
2026-04-23 14:35 33.49997 -84.68278 13371 ft 303 kts 171°
2026-04-23 14:36 33.47796 -84.67876 14044 ft 307 kts 171°
2026-04-23 14:36 33.45614 -84.67471 14697 ft 310 kts 171°
2026-04-23 14:36 33.43293 -84.66677 15235 ft 320 kts 154°
2026-04-23 14:36 33.41198 -84.64933 15284 ft 349 kts 134°
2026-04-23 14:37 33.39551 -84.62264 15352 ft 378 kts 117°
2026-04-23 14:37 33.38274 -84.59276 15784 ft 392 kts 118°
2026-04-23 14:37 33.36814 -84.56138 16595 ft 397 kts 119°
2026-04-23 14:37 33.35351 -84.53036 17323 ft 403 kts 119°
2026-04-23 14:38 33.33852 -84.49892 18145 ft 407 kts 119°
2026-04-23 14:38 33.32418 -84.46908 18843 ft 412 kts 119°
2026-04-23 14:38 33.30881 -84.43716 19559 ft 418 kts 119°
2026-04-23 14:38 33.29297 -84.40434 20335 ft 422 kts 119°
2026-04-23 14:39 33.27700 -84.37132 20996 ft 428 kts 119°
2026-04-23 14:39 33.26098 -84.33820 21665 ft 432 kts 120°
2026-04-23 14:39 33.24466 -84.30454 22292 ft 437 kts 120°
2026-04-23 14:39 33.22826 -84.27073 22905 ft 441 kts 120°
2026-04-23 14:40 33.21184 -84.23692 23504 ft 445 kts 120°
2026-04-23 14:40 33.19498 -84.20222 24143 ft 448 kts 120°
2026-04-23 14:40 33.17810 -84.16750 24708 ft 452 kts 120°
2026-04-23 14:40 33.16130 -84.13301 25255 ft 456 kts 120°
2026-04-23 14:41 33.14455 -84.09863 25779 ft 459 kts 119°
2026-04-23 14:41 33.12711 -84.06289 26313 ft 462 kts 119°
2026-04-23 14:41 33.11011 -84.02807 26784 ft 466 kts 120°
2026-04-23 14:41 33.09214 -83.99566 27246 ft 469 kts 128°
2026-04-23 14:42 33.06815 -83.96502 27676 ft 473 kts 138°
2026-04-23 14:42 33.03957 -83.93872 28169 ft 475 kts 144°
2026-04-23 14:42 33.00980 -83.91320 28519 ft 480 kts 144°
2026-04-23 14:42 32.97967 -83.88775 28994 ft 482 kts 144°
2026-04-23 14:43 32.94952 -83.86240 29335 ft 486 kts 144°
2026-04-23 14:43 32.91893 -83.83678 29779 ft 488 kts 144°
2026-04-23 14:43 32.88855 -83.81141 30147 ft 490 kts 144°
2026-04-23 14:43 32.85786 -83.78582 30493 ft 492 kts 144°
2026-04-23 14:44 32.82744 -83.76047 30872 ft 492 kts 144°
2026-04-23 14:44 32.79638 -83.73463 31284 ft 492 kts 144°
2026-04-23 14:44 32.76572 -83.70913 31771 ft 490 kts 144°
2026-04-23 14:44 32.73502 -83.68363 32151 ft 490 kts 144°
2026-04-23 14:45 32.70445 -83.65826 32581 ft 488 kts 144°
2026-04-23 14:45 32.67394 -83.63218 32931 ft 488 kts 141°
2026-04-23 14:45 32.64458 -83.60608 33320 ft 486 kts 142°
2026-04-23 14:45 32.61481 -83.57975 33692 ft 485 kts 142°
2026-04-23 14:46 32.58501 -83.55343 34070 ft 485 kts 142°
2026-04-23 14:46 32.55489 -83.52685 34433 ft 486 kts 142°
2026-04-23 14:46 32.52530 -83.50077 34795 ft 485 kts 142°
2026-04-23 14:46 32.49576 -83.47475 35166 ft 485 kts 142°
2026-04-23 14:47 32.46590 -83.44848 35540 ft 484 kts 142°
2026-04-23 14:47 32.43630 -83.42245 35823 ft 485 kts 141°
2026-04-23 14:47 32.40666 -83.39642 36118 ft 485 kts 141°
2026-04-23 14:47 32.37682 -83.37023 36407 ft 485 kts 141°
2026-04-23 14:48 32.34749 -83.34451 36681 ft 485 kts 142°
2026-04-23 14:48 32.31796 -83.31864 36831 ft 487 kts 142°
2026-04-23 14:48 32.28798 -83.29240 37108 ft 486 kts 142°
2026-04-23 14:48 32.25817 -83.26632 37164 ft 485 kts 142°
2026-04-23 14:49 32.19915 -83.21477 37172 ft 484 kts 142°
2026-04-23 14:49 32.13945 -83.16270 37175 ft 484 kts 142°
2026-04-23 14:50 32.07957 -83.11056 37177 ft 484 kts 142°
2026-04-23 14:50 32.01989 -83.05868 37166 ft 485 kts 142°
2026-04-23 14:51 31.95991 -83.00662 37167 ft 485 kts 142°
2026-04-23 14:51 31.90080 -82.95541 37164 ft 484 kts 142°
2026-04-23 14:52 31.84147 -82.90411 37160 ft 483 kts 142°
2026-04-23 14:52 31.78203 -82.85238 37152 ft 483 kts 140°
2026-04-23 14:53 31.72495 -82.79787 37156 ft 483 kts 140°
2026-04-23 14:53 31.66728 -82.74306 37158 ft 483 kts 140°
2026-04-23 14:54 31.60931 -82.68809 37161 ft 484 kts 140°
2026-04-23 14:54 31.55158 -82.63344 37164 ft 483 kts 140°
2026-04-23 14:55 31.49393 -82.57896 37164 ft 482 kts 140°
2026-04-23 14:55 31.43640 -82.52469 37152 ft 482 kts 140°
2026-04-23 14:56 31.37841 -82.47006 37155 ft 482 kts 140°
2026-04-23 14:56 31.32092 -82.41599 37159 ft 484 kts 140°
2026-04-23 14:57 31.26320 -82.36180 37159 ft 482 kts 140°
2026-04-23 14:57 31.20613 -82.30831 37160 ft 481 kts 141°
2026-04-23 14:58 31.14889 -82.25474 37161 ft 482 kts 141°
2026-04-23 14:58 31.09160 -82.20121 37156 ft 482 kts 141°
2026-04-23 14:59 31.03383 -82.14730 37157 ft 481 kts 141°
2026-04-23 14:59 30.97725 -82.09461 37158 ft 481 kts 141°
2026-04-23 15:00 30.92069 -82.04202 37157 ft 482 kts 141°
2026-04-23 15:00 30.86289 -81.98835 37150 ft 482 kts 141°
2026-04-23 15:01 30.80545 -81.93510 37155 ft 482 kts 141°
2026-04-23 15:01 30.74757 -81.88152 37154 ft 483 kts 141°
2026-04-23 15:02 30.68989 -81.82822 37159 ft 482 kts 141°
2026-04-23 15:02 30.63216 -81.77496 37166 ft 483 kts 141°
2026-04-23 15:03 30.57303 -81.72602 37170 ft 483 kts 145°
2026-04-23 15:03 30.51424 -81.67868 37180 ft 483 kts 145°
2026-04-23 15:04 30.45826 -81.63362 37176 ft 483 kts 145°
2026-04-23 15:04 30.40303 -81.58920 37177 ft 483 kts 145°
2026-04-23 15:05 30.34812 -81.54510 37181 ft 483 kts 145°
2026-04-23 15:05 30.29266 -81.50061 37179 ft 484 kts 145°
2026-04-23 15:06 30.23747 -81.45641 37184 ft 484 kts 145°
2026-04-23 15:06 30.18211 -81.41213 37181 ft 485 kts 145°
2026-04-23 15:07 30.12655 -81.36775 37182 ft 486 kts 145°
2026-04-23 15:07 30.07123 -81.32362 37178 ft 484 kts 146°
2026-04-23 15:08 30.01576 -81.27945 37176 ft 484 kts 146°
2026-04-23 15:09 29.93284 -81.21351 37179 ft 483 kts 146°
2026-04-23 15:09 29.87730 -81.16943 37175 ft 484 kts 146°
2026-04-23 15:10 29.83065 -81.13294 37172 ft 485 kts 150°
2026-04-23 15:10 29.75688 -81.09396 37170 ft 485 kts 159°
2026-04-23 15:11 29.69120 -81.06252 37170 ft 483 kts 159°
2026-04-23 15:11 29.62497 -81.03112 37169 ft 482 kts 159°
2026-04-23 15:12 29.55904 -80.99998 37173 ft 481 kts 159°
2026-04-23 15:12 29.49336 -80.96903 37171 ft 481 kts 159°
2026-04-23 15:13 29.42740 -80.93799 37171 ft 482 kts 159°
2026-04-23 15:13 29.36005 -80.90635 37170 ft 483 kts 159°
2026-04-23 15:14 29.29341 -80.87508 37172 ft 483 kts 159°
2026-04-23 15:14 29.22659 -80.84377 37172 ft 482 kts 159°
2026-04-23 15:15 29.16283 -80.81393 37171 ft 481 kts 160°
2026-04-23 15:15 29.10058 -80.78484 37170 ft 481 kts 160°
2026-04-23 15:16 29.03858 -80.75591 37165 ft 481 kts 160°
2026-04-23 15:16 28.97667 -80.72706 37158 ft 482 kts 160°
2026-04-23 15:17 28.91460 -80.69762 37149 ft 484 kts 156°
2026-04-23 15:17 28.85849 -80.65419 37163 ft 488 kts 137°
2026-04-23 15:18 28.81590 -80.59309 37160 ft 493 kts 124°
2026-04-23 15:18 28.77581 -80.52422 37147 ft 493 kts 124°
2026-04-23 15:19 28.73743 -80.45847 37148 ft 494 kts 124°
2026-04-23 15:19 28.69918 -80.39316 37149 ft 496 kts 125°
2026-04-23 15:20 28.66703 -80.33892 37144 ft 495 kts 125°
2026-04-23 15:20 28.62217 -80.26330 37140 ft 496 kts 126°
2026-04-23 15:21 28.58377 -80.19868 37142 ft 496 kts 126°
2026-04-23 15:21 28.54506 -80.13364 37141 ft 497 kts 126°
2026-04-23 15:22 28.50634 -80.06868 37142 ft 497 kts 126°
2026-04-23 15:22 28.46776 -80.00405 37143 ft 497 kts 126°
2026-04-23 15:23 28.42876 -79.93883 37144 ft 499 kts 126°
2026-04-23 15:23 28.38969 -79.87359 37147 ft 498 kts 126°
2026-04-23 15:24 28.35079 -79.80872 37148 ft 499 kts 126°
2026-04-23 15:24 28.31121 -79.74281 37146 ft 500 kts 126°
2026-04-23 15:25 28.27029 -79.67479 37145 ft 501 kts 126°
2026-04-23 15:25 28.23640 -79.61855 37149 ft 501 kts 126°
2026-04-23 15:26 28.18877 -79.53961 37154 ft 502 kts 126°
2026-04-23 15:26 28.14764 -79.47157 37154 ft 501 kts 126°
2026-04-23 15:27 28.10635 -79.40337 37156 ft 503 kts 127°
2026-04-23 15:27 28.06541 -79.33585 37145 ft 504 kts 127°
2026-04-23 15:28 28.02482 -79.26901 37148 ft 503 kts 127°
2026-04-23 15:28 27.98402 -79.20194 37146 ft 504 kts 127°
2026-04-23 15:29 27.94306 -79.13470 37146 ft 505 kts 127°
2026-04-23 15:29 27.90143 -79.06649 37147 ft 505 kts 127°
2026-04-23 15:30 27.86063 -78.99973 37148 ft 506 kts 127°
2026-04-23 15:30 27.81985 -78.93308 37152 ft 506 kts 128°
2026-04-23 15:31 27.77880 -78.86613 37149 ft 506 kts 128°
2026-04-23 15:31 27.73741 -78.79874 37153 ft 507 kts 127°
2026-04-23 15:32 27.69572 -78.73093 37156 ft 508 kts 127°
2026-04-23 15:32 27.65421 -78.66354 37154 ft 509 kts 128°
2026-04-23 15:33 27.61367 -78.59513 37159 ft 510 kts 126°
2026-04-23 15:33 27.57364 -78.52649 37159 ft 509 kts 126°
2026-04-23 15:34 27.53354 -78.45789 37164 ft 510 kts 126°
2026-04-23 15:34 27.49307 -78.38875 37165 ft 511 kts 126°
2026-04-23 15:35 27.45335 -78.32102 37151 ft 511 kts 127°
2026-04-23 15:35 27.41383 -78.25373 37156 ft 511 kts 127°
2026-04-23 15:36 27.37437 -78.18665 37155 ft 511 kts 127°
2026-04-23 15:36 27.33515 -78.12005 37158 ft 510 kts 127°
2026-04-23 15:37 27.29547 -78.05278 37161 ft 512 kts 127°
2026-04-23 15:37 27.26228 -77.99656 37157 ft 511 kts 127°
2026-04-23 15:38 27.21637 -77.91894 37159 ft 511 kts 127°
2026-04-23 15:38 27.17679 -77.85213 37161 ft 513 kts 127°
2026-04-23 15:39 27.13749 -77.78590 37157 ft 512 kts 128°
2026-04-23 15:39 27.09784 -77.71915 37155 ft 513 kts 128°
2026-04-23 15:40 27.05819 -77.65253 37157 ft 513 kts 128°
2026-04-23 15:40 27.01859 -77.58607 37154 ft 512 kts 128°
2026-04-23 15:41 26.97960 -77.51951 37161 ft 515 kts 127°
2026-04-23 15:41 26.94037 -77.45218 37156 ft 515 kts 127°
2026-04-23 15:42 26.90113 -77.38493 37161 ft 515 kts 127°
2026-04-23 15:42 26.86190 -77.31782 37145 ft 518 kts 128°
2026-04-23 15:43 26.82215 -77.24995 37150 ft 522 kts 128°
2026-04-23 15:43 26.78219 -77.18177 37149 ft 524 kts 128°
2026-04-23 15:44 26.74127 -77.11209 37155 ft 525 kts 128°
2026-04-23 15:44 26.70106 -77.04371 37156 ft 525 kts 128°
2026-04-23 15:45 26.66103 -76.97573 37156 ft 524 kts 128°
2026-04-23 15:45 26.62069 -76.90736 37156 ft 526 kts 128°
2026-04-23 15:46 26.58062 -76.83954 37152 ft 524 kts 128°
2026-04-23 15:46 26.54024 -76.77129 37158 ft 525 kts 129°
2026-04-23 15:47 26.49970 -76.70289 37161 ft 526 kts 129°
2026-04-23 15:47 26.45924 -76.63470 37160 ft 527 kts 129°
2026-04-23 15:48 26.41883 -76.56672 37159 ft 527 kts 129°
2026-04-23 15:48 26.37832 -76.49867 37159 ft 528 kts 129°
2026-04-23 15:49 26.33785 -76.43078 37164 ft 529 kts 129°
2026-04-23 15:49 26.29712 -76.36255 37161 ft 528 kts 129°
2026-04-23 15:50 26.25633 -76.29432 37144 ft 527 kts 129°
2026-04-23 15:50 26.21564 -76.22639 37151 ft 529 kts 130°
2026-04-23 15:51 26.17457 -76.15789 37150 ft 529 kts 130°
2026-04-23 15:51 26.13336 -76.08929 37156 ft 531 kts 130°
2026-04-23 15:52 26.09230 -76.02103 37152 ft 530 kts 130°
2026-04-23 15:52 26.05120 -75.95281 37149 ft 532 kts 130°
2026-04-23 15:53 26.00990 -75.88431 37153 ft 531 kts 130°
2026-04-23 15:53 25.96887 -75.81640 37144 ft 530 kts 130°
2026-04-23 15:54 25.92727 -75.74767 37145 ft 531 kts 130°
2026-04-23 15:54 25.88538 -75.67854 37153 ft 531 kts 130°
2026-04-23 15:55 25.84396 -75.61028 37149 ft 531 kts 130°
2026-04-23 15:55 25.80209 -75.54140 37149 ft 533 kts 130°
2026-04-23 15:56 25.75988 -75.47205 37151 ft 533 kts 131°
2026-04-23 15:56 25.71709 -75.40185 37144 ft 532 kts 130°
2026-04-23 15:57 25.67484 -75.33263 37136 ft 533 kts 131°
2026-04-23 15:57 25.63349 -75.26502 37130 ft 531 kts 131°
2026-04-23 15:58 25.59181 -75.19695 37125 ft 533 kts 131°
2026-04-23 15:58 25.54996 -75.12869 37131 ft 535 kts 131°
2026-04-23 15:59 25.50839 -75.06099 37138 ft 534 kts 131°
2026-04-23 15:59 25.46655 -74.99295 37125 ft 533 kts 131°
2026-04-23 16:00 25.42488 -74.92533 37128 ft 536 kts 131°
2026-04-23 16:00 25.38292 -74.85726 37140 ft 535 kts 131°
2026-04-23 16:01 25.34092 -74.78927 37142 ft 537 kts 132°
2026-04-23 16:01 25.29917 -74.72175 37138 ft 535 kts 132°
2026-04-23 16:02 25.25725 -74.65406 37135 ft 534 kts 132°
2026-04-23 16:02 25.21524 -74.58635 37130 ft 536 kts 132°
2026-04-23 16:03 25.17284 -74.51808 37141 ft 538 kts 132°
2026-04-23 16:03 25.13082 -74.45052 37137 ft 537 kts 131°
2026-04-23 16:04 25.08836 -74.38236 37146 ft 536 kts 132°
2026-04-23 16:04 25.04597 -74.31444 37111 ft 537 kts 133°
2026-04-23 16:05 25.01088 -74.25822 37113 ft 534 kts 133°
2026-04-23 16:05 24.96166 -74.17957 37121 ft 538 kts 132°
2026-04-23 16:06 24.91894 -74.11135 37124 ft 537 kts 132°
2026-04-23 16:06 24.87671 -74.04403 37126 ft 537 kts 133°
2026-04-23 16:07 24.83438 -73.97665 37129 ft 536 kts 133°
2026-04-23 16:07 24.79186 -73.90907 37128 ft 535 kts 133°
2026-04-23 16:08 24.74957 -73.84195 37131 ft 536 kts 133°
2026-04-23 16:08 24.70709 -73.77460 37132 ft 536 kts 133°
2026-04-23 16:09 24.66445 -73.70712 37134 ft 537 kts 133°
2026-04-23 16:09 24.62182 -73.63972 37133 ft 538 kts 133°
2026-04-23 16:10 24.57925 -73.57250 37131 ft 536 kts 133°
2026-04-23 16:10 24.53941 -73.50258 37140 ft 544 kts 128°
2026-04-23 16:11 24.50127 -73.43161 37127 ft 541 kts 128°
2026-04-23 16:11 24.46312 -73.36097 37121 ft 536 kts 128°
2026-04-23 16:12 24.42522 -73.29093 37112 ft 529 kts 129°
2026-04-23 16:12 24.38754 -73.22151 37111 ft 532 kts 128°
2026-04-23 16:13 24.34969 -73.15181 37097 ft 532 kts 128°
2026-04-23 16:13 24.29284 -73.04730 37098 ft 532 kts 129°
2026-04-23 16:14 24.25506 -72.97798 37092 ft 530 kts 129°
2026-04-23 16:14 24.21729 -72.90878 37103 ft 530 kts 129°
2026-04-23 16:15 24.17951 -72.83967 37107 ft 531 kts 129°
2026-04-23 16:15 24.14151 -72.77025 37101 ft 531 kts 128°
2026-04-23 16:16 24.10369 -72.70124 37098 ft 530 kts 129°
2026-04-23 16:16 24.06574 -72.63210 37096 ft 529 kts 128°
2026-04-23 16:17 24.02789 -72.56325 37098 ft 532 kts 129°
2026-04-23 16:17 23.98976 -72.49395 37096 ft 529 kts 129°
2026-04-23 16:18 23.95207 -72.42557 37098 ft 527 kts 128°
2026-04-23 16:18 23.91391 -72.35649 37099 ft 531 kts 128°
2026-04-23 16:19 23.87591 -72.28772 37092 ft 530 kts 129°
2026-04-23 16:19 23.83777 -72.21879 37089 ft 528 kts 129°
2026-04-23 16:20 23.79935 -72.14952 37089 ft 529 kts 129°
2026-04-23 16:20 23.76062 -72.07973 37086 ft 529 kts 129°
2026-04-23 16:21 23.72170 -72.00970 37089 ft 528 kts 129°
2026-04-23 16:21 23.68228 -71.93890 37090 ft 527 kts 129°
2026-04-23 16:22 23.64304 -71.86853 37095 ft 530 kts 129°
2026-04-23 16:22 23.60379 -71.79796 37091 ft 526 kts 131°
2026-04-23 16:23 23.55920 -71.73434 37084 ft 519 kts 136°
2026-04-23 16:23 23.51349 -71.66919 37092 ft 521 kts 135°
2026-04-23 16:24 23.46786 -71.60360 37097 ft 522 kts 135°
2026-04-23 16:24 23.42249 -71.53830 37096 ft 519 kts 135°
2026-04-23 16:25 23.37707 -71.47301 37093 ft 520 kts 135°
2026-04-23 16:25 23.33150 -71.40757 37091 ft 520 kts 135°
2026-04-23 16:26 23.28613 -71.34249 37091 ft 520 kts 135°
2026-04-23 16:26 23.24145 -71.27847 37079 ft 519 kts 135°
2026-04-23 16:27 23.19649 -71.21414 37084 ft 520 kts 135°
2026-04-23 16:27 23.15129 -71.14955 37087 ft 520 kts 135°
2026-04-23 16:28 23.10638 -71.08545 37088 ft 520 kts 136°
2026-04-23 16:28 23.06184 -71.02195 37079 ft 518 kts 136°
2026-04-23 16:29 23.01684 -70.95791 37087 ft 520 kts 135°
2026-04-23 16:29 22.97151 -70.89346 37090 ft 520 kts 135°
2026-04-23 16:30 22.92602 -70.82884 37089 ft 520 kts 135°
2026-04-23 16:30 22.88079 -70.76483 37096 ft 521 kts 135°
2026-04-23 16:31 22.83591 -70.70139 37091 ft 521 kts 135°
2026-04-23 16:31 22.79075 -70.63763 37096 ft 518 kts 135°
2026-04-23 16:32 22.74509 -70.57328 37092 ft 520 kts 135°
2026-04-23 16:32 22.69844 -70.50758 37086 ft 518 kts 135°
2026-04-23 16:33 22.65180 -70.44199 37084 ft 517 kts 135°
2026-04-23 16:33 22.60496 -70.37621 37078 ft 518 kts 135°
2026-04-23 16:34 22.55879 -70.31142 37053 ft 518 kts 135°
2026-04-23 16:34 22.51265 -70.24678 37055 ft 516 kts 135°
2026-04-23 16:35 22.46626 -70.18185 37059 ft 516 kts 135°
2026-04-23 16:35 22.41921 -70.11610 37057 ft 517 kts 135°
2026-04-23 16:36 22.37279 -70.05130 37055 ft 516 kts 135°
2026-04-23 16:36 22.32599 -69.98605 37056 ft 516 kts 135°
2026-04-23 16:37 22.27912 -69.92079 37054 ft 516 kts 135°
2026-04-23 16:37 22.23267 -69.85619 37055 ft 516 kts 135°
2026-04-23 16:38 22.18594 -69.79127 37055 ft 514 kts 135°
2026-04-23 16:38 22.13928 -69.72655 37056 ft 515 kts 135°
2026-04-23 16:39 22.09290 -69.66228 37057 ft 515 kts 135°
2026-04-23 16:39 22.04666 -69.59828 37053 ft 515 kts 135°
2026-04-23 16:40 22.00153 -69.53590 37049 ft 515 kts 135°
2026-04-23 16:40 21.95730 -69.47482 37048 ft 514 kts 135°
2026-04-23 16:41 21.91330 -69.41413 37054 ft 512 kts 135°
2026-04-23 16:41 21.86948 -69.35378 37064 ft 514 kts 135°
2026-04-23 16:42 21.82522 -69.29285 37043 ft 512 kts 135°
2026-04-23 16:42 21.78142 -69.23266 37040 ft 512 kts 135°
2026-04-23 16:43 21.73734 -69.17215 37038 ft 515 kts 135°
2026-04-23 16:43 21.69325 -69.11165 37040 ft 512 kts 135°
2026-04-23 16:44 21.64924 -69.05136 37033 ft 513 kts 135°
2026-04-23 16:44 21.60512 -68.99097 37036 ft 512 kts 135°
2026-04-23 16:45 21.56091 -68.93055 37029 ft 512 kts 135°
2026-04-23 16:45 21.51701 -68.87060 37032 ft 512 kts 135°
2026-04-23 16:46 21.47272 -68.81020 37024 ft 512 kts 135°
2026-04-23 16:46 21.42816 -68.74949 37024 ft 511 kts 135°
2026-04-23 16:47 21.38391 -68.68926 37029 ft 511 kts 135°
2026-04-23 16:47 21.33979 -68.62928 37022 ft 510 kts 135°
2026-04-23 16:48 21.29536 -68.56894 37029 ft 511 kts 135°
2026-04-23 16:48 21.25128 -68.50914 37023 ft 510 kts 135°
2026-04-23 16:49 21.20657 -68.44855 37028 ft 510 kts 135°
2026-04-23 16:49 21.16240 -68.38876 37021 ft 510 kts 135°
2026-04-23 16:50 21.11813 -68.32890 36997 ft 509 kts 135°
2026-04-23 16:50 21.07451 -68.26991 36989 ft 492 kts 136°
2026-04-23 16:51 21.05329 -68.24123 36991 ft 481 kts 136°
2026-04-23 16:51 21.03278 -68.21358 37000 ft 478 kts 136°
2026-04-23 16:51 20.99045 -68.15663 37005 ft 487 kts 136°
2026-04-23 16:52 20.94768 -68.09901 36995 ft 487 kts 136°
2026-04-23 16:52 20.90572 -68.04254 37000 ft 485 kts 136°
2026-04-23 16:53 20.86365 -67.98601 37007 ft 487 kts 135°
2026-04-23 16:53 20.82162 -67.92821 37012 ft 487 kts 135°
2026-04-23 16:54 20.77989 -67.87081 37010 ft 485 kts 135°
2026-04-23 16:54 20.73811 -67.81344 37016 ft 487 kts 135°
2026-04-23 16:55 20.69581 -67.75539 37017 ft 487 kts 135°
2026-04-23 16:55 20.65343 -67.69729 37013 ft 486 kts 135°
2026-04-23 16:56 20.61205 -67.64061 37010 ft 486 kts 135°
2026-04-23 16:56 20.57031 -67.58352 37016 ft 487 kts 135°
2026-04-23 16:57 20.52838 -67.52624 36634 ft 494 kts 135°
2026-04-23 16:57 20.50711 -67.49722 35975 ft 498 kts 134°
2026-04-23 16:57 20.48600 -67.46839 35213 ft 496 kts 134°
2026-04-23 16:58 20.46519 -67.43993 34313 ft 486 kts 134°
2026-04-23 16:58 20.44422 -67.41135 33562 ft 487 kts 134°
2026-04-23 16:58 20.42321 -67.38277 32643 ft 498 kts 134°
2026-04-23 16:58 20.40159 -67.35339 31478 ft 507 kts 133°
2026-04-23 16:59 20.38040 -67.32436 31574 ft 485 kts 134°
2026-04-23 16:59 20.35935 -67.29576 30866 ft 491 kts 134°
2026-04-23 16:59 20.33795 -67.26692 30155 ft 492 kts 134°
2026-04-23 16:59 20.31723 -67.23862 29655 ft 487 kts 133°
2026-04-23 17:00 20.29639 -67.21015 29435 ft 467 kts 133°
2026-04-23 17:00 20.27637 -67.18291 28949 ft 467 kts 133°
2026-04-23 17:00 20.25592 -67.15535 27879 ft 475 kts 133°
2026-04-23 17:00 20.23573 -67.12781 27692 ft 453 kts 132°
2026-04-23 17:01 20.21641 -67.10152 27219 ft 450 kts 133°
2026-04-23 17:01 20.19691 -67.07510 26722 ft 449 kts 132°
2026-04-23 17:01 20.17780 -67.04920 26238 ft 447 kts 132°
2026-04-23 17:01 20.15837 -67.02288 25747 ft 445 kts 131°
2026-04-23 17:02 20.14559 -67.00555 25367 ft 440 kts 131°
2026-04-23 17:02 20.12047 -66.97154 24806 ft 429 kts 131°
2026-04-23 17:02 20.10217 -66.94679 24325 ft 427 kts 130°
2026-04-23 17:02 20.08382 -66.92197 23858 ft 424 kts 130°
2026-04-23 17:03 20.06565 -66.89740 23328 ft 411 kts 130°
2026-04-23 17:03 20.04827 -66.87390 22995 ft 401 kts 130°
2026-04-23 17:03 20.03092 -66.85047 22523 ft 399 kts 129°
2026-04-23 17:03 20.01351 -66.82697 22074 ft 397 kts 129°
2026-04-23 17:04 19.99522 -66.80521 21623 ft 393 kts 141°
2026-04-23 17:04 19.97265 -66.78889 21217 ft 386 kts 154°
2026-04-23 17:04 19.94833 -66.77559 20856 ft 381 kts 154°
2026-04-23 17:04 19.92424 -66.76249 20491 ft 377 kts 155°
2026-04-23 17:05 19.90018 -66.74962 20123 ft 373 kts 155°
2026-04-23 17:05 19.87689 -66.73724 19772 ft 369 kts 155°
2026-04-23 17:05 19.85363 -66.72493 19416 ft 366 kts 155°
2026-04-23 17:05 19.83013 -66.71251 19060 ft 365 kts 155°
2026-04-23 17:06 19.80719 -66.70041 18710 ft 364 kts 155°
2026-04-23 17:06 19.78450 -66.68845 18366 ft 362 kts 155°
2026-04-23 17:06 19.76160 -66.67637 18013 ft 359 kts 155°
2026-04-23 17:06 19.73878 -66.66434 17640 ft 355 kts 155°
2026-04-23 17:07 19.71668 -66.65272 17213 ft 354 kts 155°
2026-04-23 17:07 19.69450 -66.64104 16787 ft 353 kts 155°
2026-04-23 17:07 19.67222 -66.62930 16447 ft 348 kts 155°
2026-04-23 17:07 19.65044 -66.61785 16121 ft 346 kts 155°
2026-04-23 17:08 19.62852 -66.60632 15795 ft 345 kts 155°
2026-04-23 17:08 19.60713 -66.59507 15473 ft 345 kts 155°
2026-04-23 17:08 19.58555 -66.58373 15149 ft 344 kts 155°
2026-04-23 17:08 19.56415 -66.57248 14813 ft 341 kts 155°
2026-04-23 17:09 19.54289 -66.56131 14474 ft 339 kts 155°
2026-04-23 17:09 19.52148 -66.55006 14148 ft 338 kts 154°
2026-04-23 17:09 19.50054 -66.53907 13841 ft 336 kts 154°
2026-04-23 17:09 19.47976 -66.52816 13747 ft 324 kts 154°
2026-04-23 17:10 19.45970 -66.51763 13506 ft 318 kts 154°
2026-04-23 17:10 19.43957 -66.50706 13324 ft 310 kts 154°
2026-04-23 17:10 19.41935 -66.49647 13015 ft 308 kts 154°
2026-04-23 17:10 19.39933 -66.48597 12731 ft 303 kts 154°
2026-04-23 17:11 19.37995 -66.47581 12440 ft 300 kts 154°
2026-04-23 17:11 19.36060 -66.46567 12128 ft 297 kts 154°
2026-04-23 17:11 19.34145 -66.45564 11824 ft 295 kts 154°
2026-04-23 17:11 19.32231 -66.44562 11526 ft 293 kts 154°
2026-04-23 17:12 19.30315 -66.43559 11218 ft 292 kts 154°
2026-04-23 17:12 19.28417 -66.42565 10925 ft 290 kts 154°
2026-04-23 17:12 19.26503 -66.41563 10626 ft 289 kts 154°
2026-04-23 17:12 19.24660 -66.40599 10344 ft 288 kts 154°
2026-04-23 17:13 19.22796 -66.39625 10051 ft 286 kts 154°
2026-04-23 17:13 19.20942 -66.38656 9765 ft 284 kts 153°
2026-04-23 17:13 19.19117 -66.37701 9482 ft 282 kts 153°
2026-04-23 17:13 19.17281 -66.36742 9191 ft 279 kts 153°
2026-04-23 17:14 19.15495 -66.35809 8868 ft 273 kts 153°
2026-04-23 17:14 19.13725 -66.34883 8723 ft 260 kts 153°
2026-04-23 17:14 19.12084 -66.34027 8390 ft 258 kts 154°
2026-04-23 17:14 19.10365 -66.33459 7977 ft 258 kts 169°
2026-04-23 17:15 19.08572 -66.33093 7863 ft 245 kts 168°
2026-04-23 17:15 19.06864 -66.32735 7780 ft 236 kts 168°
2026-04-23 17:15 19.05157 -66.32384 7723 ft 236 kts 168°
2026-04-23 17:15 19.03417 -66.32029 7671 ft 238 kts 168°
2026-04-23 17:16 19.01703 -66.31681 7634 ft 233 kts 168°
2026-04-23 17:16 19.00081 -66.31353 7530 ft 225 kts 168°
2026-04-23 17:16 18.98497 -66.31033 7241 ft 227 kts 168°
2026-04-23 17:16 18.96943 -66.30719 6979 ft 218 kts 168°
2026-04-23 17:17 18.95377 -66.30403 6939 ft 219 kts 168°
2026-04-23 17:17 18.93817 -66.30088 6909 ft 226 kts 168°
2026-04-23 17:17 18.92773 -66.29878 6876 ft 227 kts 168°
2026-04-23 17:17 18.90685 -66.29457 6774 ft 224 kts 168°
2026-04-23 17:18 18.87596 -66.29409 6140 ft 222 kts 180°
2026-04-23 17:18 18.86057 -66.29464 5688 ft 221 kts 181°
2026-04-23 17:18 18.84525 -66.29524 5250 ft 220 kts 180°
2026-04-23 17:19 18.82985 -66.29582 4806 ft 219 kts 181°
2026-04-23 17:19 18.81460 -66.29642 4318 ft 224 kts 181°
2026-04-23 17:19 18.79875 -66.29697 3877 ft 230 kts 180°
2026-04-23 17:19 18.78255 -66.29755 3398 ft 240 kts 180°
2026-04-23 17:20 18.76522 -66.29818 2846 ft 251 kts 181°
2026-04-23 17:20 18.72966 -66.29954 2980 ft 262 kts 185°
2026-04-23 17:21 18.69430 -66.30953 2963 ft 257 kts 190°
2026-04-23 17:21 18.67716 -66.30924 2926 ft 240 kts 159°
2026-04-23 17:21 18.65006 -66.29319 2797 ft 218 kts 160°
2026-04-23 17:22 18.63612 -66.28838 2756 ft 199 kts 158°
2026-04-23 17:22 18.61134 -66.27834 2237 ft 185 kts 155°
2026-04-23 17:23 18.58838 -66.26842 2197 ft 188 kts 155°
2026-04-23 17:23 18.57611 -66.26301 2182 ft 192 kts 155°
2026-04-23 17:23 18.55173 -66.25220 2182 ft 189 kts 155°
2026-04-23 17:24 18.53950 -66.24675 2171 ft 189 kts 154°
2026-04-23 17:24 18.52727 -66.24129 2166 ft 188 kts 155°
2026-04-23 17:24 18.50313 -66.23051 2175 ft 188 kts 154°
2026-04-23 17:25 18.47936 -66.21989 1966 ft 186 kts 154°
2026-04-23 17:25 18.46722 -66.21444 2003 ft 193 kts 154°
2026-04-23 17:26 18.44333 -66.20332 1975 ft 184 kts 143°
2026-04-23 17:26 18.43325 -66.18021 2015 ft 178 kts 86°
2026-04-23 17:27 18.43390 -66.15488 1974 ft 164 kts 90°
2026-04-23 17:27 18.43378 -66.14353 1972 ft 154 kts 89°
2026-04-23 17:27 18.43379 -66.13229 1985 ft 150 kts 89°
2026-04-23 17:27 18.43379 -66.12143 1924 ft 146 kts 89°
2026-04-23 17:28 18.43376 -66.11102 1712 ft 141 kts 89°
2026-04-23 17:28 18.43374 -66.10075 1544 ft 139 kts 89°
2026-04-23 17:28 18.43372 -66.09051 1373 ft 141 kts 89°
2026-04-23 17:28 18.43369 -66.08010 1191 ft 141 kts 89°
2026-04-23 17:29 18.43367 -66.06988 1013 ft 139 kts 89°
2026-04-23 17:29 18.43353 -66.05960 831 ft 140 kts 89°
2026-04-23 17:29 18.43359 -66.03919 505 ft 138 kts 89°
2026-04-23 17:30 18.43352 -66.03240 398 ft 139 kts 87°
2026-04-23 17:30 18.43357 -66.00833 18 ft 140 kts 88°
2026-04-23 17:30 18.43355 -66.00030 20 ft 63 kts 89°
2026-04-23 17:31 18.43354 -65.99731 20 ft 26 kts 89°
2026-04-23 17:31 18.43373 -65.99589 20 ft 18 kts 63°
2026-04-23 17:31 18.43448 -65.99548 20 ft 11 kts
2026-04-23 17:31 18.43528 -65.99549 20 ft 11 kts 349°
2026-04-23 17:32 18.43559 -65.99605 20 ft 9 kts 272°
2026-04-23 17:32 18.43562 -65.99683 20 ft 12 kts 271°
2026-04-23 17:32 18.43562 -65.99777 20 ft 14 kts 269°
2026-04-23 17:32 18.43561 -65.99888 19 ft 14 kts 270°
2026-04-23 17:33 18.43581 -65.99966 21 ft 8 kts 327°
2026-04-23 17:33 18.43644 -65.99976 22 ft 11 kts 354°
2026-04-23 17:33 18.43720 -65.99996 25 ft 8 kts 336°
2026-04-23 17:33 18.43784 -66.00032 28 ft 9 kts 310°
2026-04-23 17:34 18.43784 -66.00100 28 ft 10 kts 256°
2026-04-23 17:34 18.43769 -66.00159 28 ft 5 kts 248°
2026-04-23 17:34 18.43714 -66.00176 27 ft 0 kts 182°
2026-04-23 17:35 18.43712 -66.00176 27 ft 0 kts 182°